Regional Weather Roundup
Issued by NWS

Home | Current Version | Previous Version | Text Only | Print | Product List | Glossary Off
Versions: 1 2 3 4 5 6 7 8 9 10 11 12 13 14 15 16 17 18 19 20 21 22 23 24 25 26 27 28 29 30 31 32 33 34 35 36 37 38 39 40 41 42 43 44 45 46 47 48 49 50

000
ASUS45 KTFX 312204
RWRMT
MONTANA HOURLY WEATHER ROUNDUP
NATIONAL WEATHER SERVICE GREAT FALLS MT
304 PM MST SAT JAN 31 2015

NOTE: "FAIR" INDICATES FEW OR NO CLOUDS BELOW 12000 FEET WITH NO
SIGNIFICANT WEATHER AND/OR OBSTRUCTIONS TO VISIBILITY.

* THESE STATIONS ARE NOT UNDER NWS QUALITY CONTROL. THEY DO NOT
   REPORT WEATHER SUCH AS PRECIPITATION OR FOG.

MTZ001>007-043-312300-
WEST OF THE DIVIDE
CITY           SKY/WX    TMP DP  RH WIND       PRES   REMARKS
KALISPELL      CLOUDY    28  18  66 NE14      30.20R WCI  17
MISSOULA       CLOUDY    39  25  57 N14       30.14R WCI  31
BUTTE          SUNNY     36  19  50 NW13      30.04R WCI  27
MULLAN PASS    HAZE      25  19  78 VRB3      30.09S VSB M1/4
* ANACONDA     SUNNY     34  21  59 N17        N/A   WCI  23
* ESSEX        N/A       20   8  59 SE9G15     N/A   WCI  10
* LINCOLN      N/A       17   7  65 NE12G24    N/A   WCI   4
* LOOKOUT PASS N/A       25  25 100 VRB4G9     N/A
* POLSON       N/A       29  28  96 N2         N/A
* RONAN APT    SUNNY     30  30 100 N/A        N/A
* SEELEY LAKE  N/A       36  23  59 S2         N/A
* THOMP F APT  SUNNY     24  19  81 N1G7       N/A
$$

MTZ008-052>055-312300-
SOUTHWEST MONTANA
CITY           SKY/WX    TMP DP  RH WIND       PRES   REMARKS
BOZEMAN        PTSUNNY   30  19  64 N13       30.09R WCI  20
DILLON         SUNNY     43  16  34 E3        30.00R
* W YELLOWSTON SUNNY     31  17  56 SW5G12     N/A   WCI  26
* THREE FORKS  SUNNY     30  25  82 N17G23     N/A   WCI  18
* BOULDER HILL N/A       14  10  84 N20G26     N/A   WCI  -4
* MONIDA PASS  N/A       32  15  49 NW14       N/A   WCI  22
* RAYNOLDS PAS N/A       21   4  48 SE18       N/A   WCI   6
* WHITEHALL    N/A       35  18  50 N13G25     N/A   WCI  26
* WISE RIVER   N/A       38  13  36 NW11G17    N/A   WCI  31
$$

MTZ009>010-012-014-046-048-049-054-312300-
EAST SLOPES AND CENTRAL MONTANA
CITY           SKY/WX    TMP DP  RH WIND       PRES   REMARKS
CUT BANK       LGT SNOW  10   3  73 N17       30.30R WCI  -8
GREAT FALLS    LGT SNOW  12   9  88 NW16      30.29R VSB 3/4  WCI  -5
HELENA         LGT SNOW  21  10  62 N12       30.24R WCI   9
MALMSTROM AFB  LGT SNOW  12   9  88 NW13      30.33R VSB 1 3/4 WCI  -3
* DEARBORN     N/A       17   9  71 VRB7       N/A   WCI   7
* EAST GLACIER N/A       12   7  80 E9         N/A
* MONARCH      N/A        8   4  84 NW15       N/A   WCI  -9
* PENDROY      N/A       11   6  80 VRB21G29    N/A   WCI  -8
* ROGERS PASS  N/A       10   5  80 S2G9       N/A
* SWEET GRASS  N/A        7   6  96 N17        N/A   WCI -11
$$

MTZ011-013-016-021-035-040-045-047-050-051-312300-
NORTH CENTRAL MONTANA
CITY           SKY/WX    TMP DP  RH WIND       PRES   REMARKS
HAVRE          LGT SNOW  12   7  80 NE15      30.35R VSB 2 1/2 WCI  -4
LEWISTOWN      LGT SNOW  18  10  71 N13G23    30.18R VSB 1 3/4 WCI   5
* N BAR RANCH  HAZE      18  10  71 NW22G30   30.11R WCI   1
* CHESTER      N/A       12   4  70 NE8G13     N/A
* DENTON       N/A       16  10  77 NW22G30    N/A   WCI  -2
* GEYSER       N/A       12   6  77 W22G31     N/A   WCI  -7
* JUDITH GAP   N/A       16  10  77 N25G37     N/A   WCI  -3
* LOMA         N/A       15   9  77 NW12       N/A   WCI   1
$$

MTZ017>020-022>027-061-062-312300-
NORTHEAST MONTANA
CITY           SKY/WX    TMP DP  RH WIND       PRES   REMARKS
GLASGOW        LGT SNOW  10   3  73 NE22      30.29R VSB 3/4  WCI -10
GLENDIVE       PTCLDY    12   7  80 NE18G24   30.18R VSB 1 3/4 WCI  -5
JORDAN         PTCLDY    16  10  77 NE16G22   30.20R WCI   1
SIDNEY         PTCLDY    10   7  88 N18       30.31R VSB 1    WCI  -8
WOLF POINT     LGT SNOW  12   7  80 NE22      30.32R VSB 1    WCI  -7
* BEAVER HILL  N/A       11   9  92 NE15       N/A   WCI  -5
* CIRCLE       N/A       13  10  88 NE12G17    N/A   WCI  -1
* LINDSAY DVD  N/A        9   7  91 NE19       N/A   WCI -10
* NAVAJO       N/A        4   0  83 NE13       N/A   WCI -13
* SACO         N/A       12   6  77 NE19G24    N/A   WCI  -6
$$

MTZ028>042-056>058-312300-
SOUTHCENTRAL AND SOUTHEAST MONTANA
CITY           SKY/WX    TMP DP  RH WIND       PRES   REMARKS
BAKER          LGT SNOW  18  16  92 E18G25    30.05R VSB 3/4  WCI   2
BILLINGS       LGT SNOW  27  21  78 N16G25    30.11R VSB 2 1/2 WCI  15
LIVINGSTON     CLOUDY    28  14  56 NW16      30.08R WCI  16
MILES CITY     LGT SNOW  25  21  85 NE21      30.07R VSB 2    WCI  10
* LAUREL APT   PTSUNNY   28  19  69 N8         N/A   WCI  20
* ROUNDUP APT  PTSUNNY   25  16  69 N20G28     N/A   WCI  11
* ALZADA       N/A       23  22  96 E9         N/A   WCI  13
* HYSHAM       N/A       25  22  88 VRB2G11    N/A
* LAME DEER    N/A       23  22  96 N9G17      N/A   WCI  13
* REED POINT   N/A       27  22  81 E6         N/A   WCI  20
* ROSCOE HILL  N/A       23  20  88 NW12G17    N/A   WCI  11
$$

REGIONAL REPORTS...DAKOTAS
CITY           SKY/WX    TMP DP  RH WIND       PRES   REMARKS
WILLISTON      LGT SNOW   7   0  73 NE14      30.36R VSB 1 1/2 WCI -10
DICKINSON      LGT SNOW  10   7  88 E16       30.14R VSB 2    WCI  -7
CROSBY         SUNNY      1  -4  79 NE13      30.42R WCI -17
WATFORD CITY   LGT SNOW   5   0  80 NE16G23   30.29R VSB 3/4  WCI -14
BISMARCK       CLOUDY    10   1  67 NE17      30.28S WCI  -8
GRAND FORKS    CLOUDY     0  -9  65 N20       30.45R WCI -22
FARGO          CLOUDY    10  -6  48 N22       30.34S WCI -10
BUFFALO SD     PTSUNNY   19  18  96 E14       29.97R WCI   5
RAPID CITY     FOG       23  21  92 E15       29.97S VSB M1/4 WCI  10
$$

REGIONAL REPORTS...WYOMING/IDAHO/WASHINGTON
CITY           SKY/WX    TMP DP  RH WIND       PRES   REMARKS
GILLETTE       PTSUNNY   37  23  57 N20       29.89R WCI  27
SHERIDAN       LGT SNOW  30  21  69 NW30G35   30.02R WCI  15
CODY           PTCLDY    34  23  64 N23G31    29.95R WCI  22
YELLOWSTONE LA PTCLDY    30   9  41 W18G26    29.95S WCI  18
SALMON         CLOUDY    28  19  69 N6        30.18S WCI  21
MULLAN PASS    HAZE      25  19  78 VRB3      30.09S VSB M1/4
SAND POINT     CLOUDY    34  28  79 CALM      30.27S
SPOKANE        PTSUNNY   32  28  85 W5        30.27S WCI  27

$$



USA.gov is the U.S. government's official web portal to all federal, state and local government web resources and services.